Regional Weather Roundup
Issued by NWS Little Rock, AR

Home | Current Version | Previous Version | Text Only | Print | Product List | Glossary Off
Versions: 1 2 3 4 5 6 7 8 9 10 11 12 13 14 15 16 17 18 19 20 21 22 23 24 25 26 27 28 29 30 31 32 33 34 35 36 37 38 39 40 41 42 43 44 45 46 47 48 49 50

000
ASUS44 KLZK 032105
RWRLZK

WEATHER ROUNDUP FOR ARKANSAS
NATIONAL WEATHER SERVICE LITTLE ROCK AR
400 PM CDT FRI JUL 03 2015

NOTE: "FAIR" INDICATES FEW OR NO CLOUDS BELOW 12,000 FEET WITH NO
SIGNIFICANT WEATHER AND/OR OBSTRUCTIONS TO VISIBILITY.

ARZ001-003-010-029-032200-
NORTHWEST ARKANSAS

CITY           SKY/WX    TMP DP  RH WIND       PRES   REMARKS
FAYETTEVILLE   PTSUNNY   81  70  69 W9        29.88F
FORT SMITH     PTSUNNY   88  70  55 W13       29.86F HX  93
HARRISON       PTSUNNY   82  68  62 NW6       29.88F HX  85
BENTONVILLE    MOSUNNY   86  70  58 W10       29.89F HX  90
ROGERS         MOSUNNY   83  69  62 W9        29.89F HX  86
SILOAM SPGS    MOSUNNY   81  66  61 W7        29.90F
HIGHFILL       PTSUNNY   86  72  62 SW13      29.88F HX  92
SPRINGDALE     PTSUNNY   84  70  61 W12       29.90F HX  88
$$

ARZ004-005-016-032200-
NORTH CENTRAL ARKANSAS

CITY           SKY/WX    TMP DP  RH WIND       PRES   REMARKS
BATESVILLE     PTSUNNY   77  72  83 SE6       29.88F
FLIPPIN          N/A     82  68  61 NW6       29.85F HX  85
MTN HOME       MOSUNNY   84  69  60 NE5       29.86F HX  88
$$

ARZ040-041-032200-
WEST CENTRAL ARKANSAS

CITY           SKY/WX    TMP DP  RH WIND       PRES   REMARKS
MENA           PTSUNNY   82  75  78 SW8       29.93F HX  89
MOUNT IDA      PTSUNNY   77  71  82 VRB5      29.90F
$$

ARZ009-017-025-026-028-032200-
NORTHEAST ARKANSAS

CITY           SKY/WX    TMP DP  RH WIND       PRES   REMARKS
JONESBORO      LGT RAIN  75  73  93 VRB7      29.88F
NEWPORT        PTSUNNY   78  73  84 SW8       29.90S
WALNUT RIDGE   PTSUNNY   77  72  83 S10       29.88S
BLYTHEVILLE    CLOUDY    76  72  87 SW10G18   29.89F
$$

ARZ022-023-033-042-044-032200-
CENTRAL ARKANSAS

CITY           SKY/WX    TMP DP  RH WIND       PRES   REMARKS
LITTLE ROCK    TSTM      72  67  84 SW12      29.92S FOG
N LITTLE ROCK  PTSUNNY   71  71  99 SW6         N/A
JACKSONVILLE   PTSUNNY   74  73  93 SW8       29.90S
SEARCY         CLOUDY    80  72  76 SW6       29.90F
HOT SPRINGS    LGT RAIN  72  70  93 S3        29.93F FOG
RUSSELLVILLE   MOSUNNY   80  73  79 S7        29.88F
$$

ARZ036-032200-
EAST ARKANSAS

CITY           SKY/WX    TMP DP  RH WIND       PRES   REMARKS
WEST MEMPHIS   LGT RAIN  75  73  93 SW8       29.90F
$$

ARZ050-053-066-070-073-032200-
SOUTHWEST ARKANSAS

CITY           SKY/WX    TMP DP  RH WIND       PRES   REMARKS
ARKADELPHIA    FAIR      79  77  94 S6        29.93F
CAMDEN         LGT RAIN  75  72  88 CALM      29.95F
TEXARKANA      PTSUNNY   80  77  90 SW13      29.94F HX  87
EL DORADO      LGT RAIN  79  74  84 NE3       29.96S
DE QUEEN       PTSUNNY   83  74  74 W12G22    29.90F HX  89
$$

ARZ056-057-069-032200-
SOUTHEAST ARKANSAS

CITY           SKY/WX    TMP DP  RH WIND       PRES   REMARKS
PINE BLUFF     LGT RAIN  73  70  90 SW12      29.94S
STUTTGART      CLOUDY    77  72  83 SW10      29.90F
MONTICELLO     TSTM      76  75  97 W5        29.95R FOG

$$





USA.gov is the U.S. government's official web portal to all federal, state and local government web resources and services.